Wind_Speed
5 4 3 3 1 2 4 5 4 4 5 5 5 6 5 4 4 5 6 5 5 5 5 5 6 6 5 5 5 5 5 5 4 4 4 4 3 3 3 3 4 4 4 3 4 4 4 4 4
5 5 4 3 1 3 5 5 5 5 5 6 6 6 6 5 5 6 7 6 6 6 6 6 6 7 6 6 6 6 6 6 5 5 4 4 4 3 4 4 4 4 5 5 4 4 4 5 5
6 6 5 4 4 5 7 6 7 7 7 7 7 7 7 6 6 7 7 7 7 7 6 6 7 7 7 7 6 6 6 7 7 6 6 5 5 4 4 4 4 5 5 5 5 5 5 5 6
7 6 6 5 6 8 8 8 7 8 8 8 8 8 8 7 7 8 8 8 8 7 7 7 7 7 7 7 7 8 8 8 8 8 7 6 6 6 5 5 5 5 6 6 6 6 6 5 6
7 7 6 6 8 9 9 9 9 9 9 9 9 9 8 8 8 8 8 8 8 8 7 7 7 7 8 8 9 9 9 9 9 8 8 7 7 6 6 6 6 6 6 6 6 7 7 7 7
8 8 7 8 9 10 10 9 10 10 10 10 10 10 10 10 9 8 8 8 8 9 8 8 8 8 9 9 9 9 9 9 9 9 9 8 8 8 7 7 7 7 7 7 7 7 8 7 8
10 10 9 10 10 11 11 10 10 11 11 11 11 11 11 11 10 9 9 9 9 9 9 9 9 9 9 9 9 9 10 10 10 9 9 8 8 9 8 8 7 7 8 8 8 8 9 9 9
11 11 11 11 11 12 12 12 11 11 11 12 12 12 12 11 11 11 11 10 10 10 9 9 9 9 8 9 9 9 10 10 10 9 9 9 9 10 9 9 8 8 9 9 8 9 9 9 9
11 11 12 12 13 14 14 13 13 12 12 13 13 13 13 12 11 11 11 12 11 10 10 10 9 8 8 9 9 9 9 10 10 10 9 10 10 9 10 10 10 9 9 10 9 9 9 9 9
12 12 13 14 14 15 15 14 13 13 13 13 14 14 14 13 12 11 12 12 10 10 9 10 9 8 8 9 9 9 10 10 9 10 9 9 9 9 10 10 10 10 11 10 10 10 10 10 10
13 13 14 15 15 15 15 14 14 13 13 14 15 15 14 13 13 12 12 11 10 9 10 10 10 9 9 9 9 10 10 10 10 10 10 10 10 9 9 10 11 11 11 11 10 10 10 11 11
14 15 15 16 16 16 16 16 15 15 15 15 15 15 14 14 13 12 12 11 10 10 11 10 10 10 10 10 9 9 10 10 11 11 10 10 10 10 10 10 10 11 12 12 11 11 11 11 12
15 16 16 16 16 16 16 16 16 15 16 15 15 15 15 14 13 12 12 11 10 10 10 11 11 10 10 10 9 9 10 9 10 10 10 10 10 10 11 11 11 11 12 12 12 12 12 12 12
15 16 16 16 17 16 17 16 16 16 16 15 15 15 15 14 13 13 12 11 11 11 10 10 10 9 9 10 9 10 11 9 9 9 9 10 9 10 11 11 11 12 12 13 13 13 13 13 13
15 15 16 16 17 16 16 15 15 16 15 15 15 15 15 14 14 13 12 11 11 11 10 10 10 10 10 10 10 10 10 9 9 8 9 10 10 11 11 12 12 13 14 14 14 13 13 14 14
15 15 15 16 16 16 16 15 16 15 15 14 15 14 14 14 14 13 12 12 11 11 10 10 10 10 10 10 10 10 9 9 9 9 9 10 11 11 12 12 13 14 14 14 14 14 14 14 15
15 15 15 16 16 16 16 16 16 16 16 15 15 14 14 14 14 13 12 12 12 12 11 11 11 10 10 10 10 10 9 9 9 9 10 10 10 11 12 13 13 14 14 14 15 15 15 15 15
16 16 16 17 17 17 17 16 16 17 17 16 15 15 15 15 14 13 13 12 12 12 12 12 12 11 10 10 10 10 10 10 10 10 10 10 11 11 12 13 13 14 14 14 14 14 15 15 15
16 17 17 17 17 17 17 17 16 16 17 16 15 15 15 16 15 13 14 14 13 12 12 13 12 11 11 11 11 11 11 11 11 10 10 10 11 11 12 12 13 14 13 14 14 14 14 15 15
16 16 17 16 16 17 17 16 16 16 17 16 15 15 15 15 15 14 14 14 14 14 13 13 12 12 11 12 12 11 11 11 11 11 11 11 12 12 12 12 13 13 13 14 14 14 15 14 15
16 16 17 17 17 17 16 16 17 16 16 15 14 14 15 15 15 15 14 14 13 13 13 13 12 12 12 12 12 11 11 11 11 12 12 12 12 12 12 13 14 14 14 14 14 15 14 14 15
16 16 17 16 16 16 16 16 16 16 15 15 14 15 15 15 15 14 14 13 13 13 13 12 12 12 12 12 12 12 12 11 11 11 12 12 12 12 12 12 13 13 13 13 13 14 14 14 14
16 17 16 16 16 16 16 16 15 17 16 15 14 14 15 15 15 14 13 13 13 13 13 13 12 12 11 12 11 11 11 11 11 11 11 11 11 12 12 12 12 12 12 12 13 14 14 14 15
16 16 16 15 16 16 16 16 15 16 15 14 15 15 14 14 14 13 13 13 13 13 13 12 12 12 12 11 11 11 11 11 11 11 11 11 12 12 13 13 12 12 12 13 14 14 15 15 15
16 15 14 14 15 16 16 16 14 15 14 14 14 14 14 14 13 13 13 13 12 12 12 12 12 11 11 12 11 11 12 11 11 11 12 12 12 11 11 12 12 13 13 14 14 14 15 15 15
16 15 15 15 15 15 16 14 13 14 13 13 14 13 13 13 13 12 12 12 12 13 12 12 12 12 12 13 13 12 11 12 12 11 11 11 11 11 11 11 11 12 12 13 13 13 14 14 15
16 16 16 16 16 15 16 15 13 14 14 13 13 13 12 12 13 12 13 12 13 13 13 13 13 13 13 13 13 12 11 12 12 12 12 11 11 11 11 11 11 12 12 12 12 13 14 15 15
17 17 17 16 16 15 15 14 13 13 14 13 13 13 13 13 13 14 14 13 13 13 13 14 14 14 14 13 13 13 12 12 12 12 11 11 10 10 11 11 12 13 13 13 13 14 14 14 15
17 17 16 16 17 15 14 14 14 14 13 13 14 14 14 14 14 14 14 15 14 15 15 15 14 14 14 14 13 12 12 11 12 12 12 11 11 11 11 11 11 12 12 13 13 14 14 14 15
18 18 17 17 17 15 14 15 14 14 13 14 14 14 14 14 14 15 14 14 14 15 15 14 14 14 15 15 14 13 14 14 13 13 13 13 13 12 12 12 12 13 13 12 13 13 14 15 15
Wind_Direction
241 229 227 233 250 282 272 278 284 294 305 315 324 330 333 339 342 328 323 321 317 310 305 305 306 303 295 286 280 280 281 280 282 283 279 266 255 251 248 249 244 247 252 251 242 235 227 224 225
240 238 236 232 206 253 266 272 281 290 297 304 314 321 330 336 335 328 321 321 320 310 302 302 303 301 294 286 277 271 270 271 273 277 277 275 266 260 252 253 247 250 257 248 242 233 232 231 231
242 241 241 237 226 233 255 271 280 285 289 296 305 309 314 322 326 326 321 317 316 311 300 296 298 296 291 286 281 272 268 268 271 274 273 272 270 258 252 248 248 251 255 250 240 235 237 238 235
243 239 245 245 250 250 258 272 282 284 286 294 300 302 305 313 319 321 317 316 315 309 304 296 296 293 287 284 281 277 269 268 269 272 272 266 267 261 255 248 248 250 251 249 241 237 240 237 239
241 242 254 260 257 260 263 271 280 287 288 294 296 298 301 311 317 318 314 313 313 308 304 299 298 295 288 284 280 276 271 269 269 270 271 261 256 258 255 253 252 248 249 247 241 238 238 237 241
242 248 251 254 259 262 269 277 282 286 290 293 291 294 300 305 313 317 315 313 310 305 301 297 296 297 293 282 278 276 272 270 270 270 269 261 256 255 254 252 252 250 248 245 240 241 243 246 248
243 246 244 252 259 265 273 280 286 286 289 294 293 294 298 301 306 307 310 311 307 303 300 297 294 293 294 285 279 276 273 270 269 268 267 262 255 251 250 249 247 247 244 241 241 247 250 249 247
249 253 253 254 262 268 275 278 282 284 288 292 293 293 295 298 302 306 307 309 305 301 297 294 290 289 293 287 280 274 269 268 267 265 261 256 254 252 248 250 249 248 242 239 239 245 251 251 251
250 249 252 257 263 270 275 277 278 283 287 287 288 288 291 293 298 303 306 307 304 301 295 293 287 286 290 289 283 274 271 267 263 257 255 254 253 249 249 248 248 247 244 240 241 245 248 251 253
250 249 253 258 262 268 273 274 276 281 286 285 284 284 287 289 294 299 304 306 302 296 296 295 290 284 286 288 283 277 276 268 260 256 256 252 248 247 247 249 250 243 240 241 243 244 246 248 251
252 251 256 260 264 267 268 270 272 274 276 279 282 285 289 287 290 296 302 302 298 295 295 297 294 292 290 288 281 278 277 272 268 264 261 255 247 250 250 254 251 240 238 241 243 245 249 248 251
254 255 259 263 267 269 269 269 270 271 272 274 279 281 285 287 291 294 299 298 297 296 294 297 293 291 293 291 280 278 277 275 273 267 259 256 250 251 253 256 252 244 243 248 249 251 254 254 254
256 258 260 265 268 270 271 270 271 271 271 274 276 278 280 283 285 289 292 294 294 295 294 296 294 288 289 291 282 278 276 276 273 262 257 254 250 250 253 249 246 244 247 249 251 252 258 261 260
258 261 263 266 268 272 274 273 272 272 272 275 275 275 276 278 281 285 288 289 291 295 292 294 294 290 291 292 283 278 278 279 271 261 253 251 252 253 255 251 250 250 250 251 255 256 262 264 261
261 261 265 268 269 272 274 273 273 274 274 275 277 275 273 274 277 284 282 284 285 290 288 290 293 289 288 290 287 284 278 282 276 265 255 253 251 254 256 255 254 257 256 255 256 256 259 261 259
260 261 266 268 269 272 271 271 272 272 271 274 277 276 272 272 276 280 278 277 281 283 288 289 286 287 286 287 286 281 281 281 276 268 262 260 257 256 258 259 259 260 259 255 256 258 259 261 262
259 261 264 268 270 272 271 271 272 272 270 272 274 272 268 269 272 276 276 277 277 281 287 284 282 284 287 284 284 281 281 283 279 271 265 260 261 261 260 261 261 260 260 256 256 257 259 260 262
257 259 264 268 273 274 273 272 273 273 271 271 272 269 265 266 268 271 274 278 281 281 282 277 278 280 283 281 282 281 283 282 279 272 266 262 262 264 264 263 262 260 260 261 262 264 260 258 260
258 261 265 270 273 274 273 272 274 273 268 267 269 271 267 263 265 269 271 276 281 282 281 273 274 276 279 278 279 280 281 278 276 275 272 266 263 265 266 266 267 265 261 262 265 263 262 258 260
260 262 265 271 272 274 276 274 276 272 268 265 266 271 272 266 265 266 269 272 275 278 279 274 272 273 273 277 277 274 275 274 271 273 274 271 268 268 268 268 268 266 261 262 263 260 260 261 261
261 262 265 270 273 275 278 278 278 273 269 265 264 265 269 268 268 266 268 270 275 277 278 272 274 275 274 274 276 273 275 274 274 272 273 277 275 272 270 271 270 266 266 265 265 263 260 263 264
260 264 267 270 274 276 275 278 278 274 267 264 263 262 263 266 267 269 270 275 278 276 275 274 274 274 274 275 277 275 273 272 273 273 274 275 274 274 274 275 274 268 264 264 265 266 265 266 265
262 265 268 269 272 276 277 276 276 273 263 262 261 260 260 265 270 271 271 274 277 274 272 272 272 273 276 277 275 273 273 274 273 273 274 275 276 276 273 279 277 270 265 269 271 271 270 269 268
261 263 266 268 273 277 279 276 272 271 263 261 258 257 259 262 264 267 268 272 276 272 270 268 271 274 278 279 276 274 275 273 273 274 274 276 278 281 278 278 273 268 268 272 271 272 273 272 269
258 261 266 269 271 272 276 274 269 267 262 259 255 255 254 258 259 263 265 268 270 271 269 268 275 278 279 278 278 276 276 274 273 277 276 278 280 281 280 280 271 270 271 271 272 274 272 272 272
255 256 260 264 269 272 276 274 268 266 262 259 257 256 253 254 254 258 262 262 265 267 268 269 272 276 277 278 277 279 275 275 276 277 279 278 281 281 282 286 278 277 275 273 271 272 274 274 275
253 253 257 264 270 274 277 277 269 263 259 254 252 252 251 251 253 257 261 264 267 268 267 269 271 273 275 276 274 273 274 275 277 280 278 278 281 282 278 285 280 279 278 275 273 273 277 276 276
253 255 258 260 266 269 273 274 269 261 254 249 250 251 253 254 258 259 260 264 266 268 270 271 272 271 272 271 270 271 273 274 275 279 282 285 283 282 280 282 281 276 274 271 272 274 276 276 277
254 256 257 258 261 268 270 270 265 261 253 248 249 253 256 259 261 260 261 262 263 266 268 269 268 268 269 269 269 271 272 274 276 279 281 282 282 281 280 281 279 276 277 277 277 279 280 280 281
253 257 259 260 264 266 270 267 263 258 252 252 252 254 260 262 265 264 263 262 262 266 265 265 265 266 267 267 268 269 273 274 273 277 279 279 280 281 280 281 279 276 274 278 279 281 283 282 286
Height
5892 5893 5894 5895 5897 5898 5897 5896 5895 5894 5894 5893 5892 5891 5891 5890 5890 5891 5888 5886 5885 5884 5883 5882 5882 5881 5881 5880 5880 5879 5879 5879 5878 5878 5878 5878 5878 5878 5878 5878 5878 5879 5879 5879 5879 5879 5880 5880 5880
5891 5892 5893 5895 5897 5898 5897 5895 5894 5893 5893 5892 5891 5890 5889 5888 5888 5887 5885 5884 5883 5882 5882 5881 5880 5879 5879 5879 5878 5878 5878 5877 5877 5876 5876 5876 5876 5876 5876 5877 5877 5877 5878 5878 5878 5878 5878 5879 5879
5890 5891 5893 5894 5895 5896 5895 5893 5892 5892 5891 5890 5890 5889 5888 5887 5886 5885 5884 5882 5882 5881 5880 5879 5878 5877 5877 5876 5876 5876 5876 5876 5875 5874 5874 5874 5874 5875 5875 5875 5875 5876 5876 5876 5876 5876 5877 5877 5877
5889 5890 5892 5894 5893 5893 5892 5891 5891 5890 5890 5889 5888 5888 5887 5886 5884 5883 5882 5881 5880 5879 5878 5877 5876 5875 5874 5874 5874 5874 5874 5873 5873 5872 5872 5872 5872 5873 5873 5873 5874 5874 5874 5874 5875 5875 5875 5876 5876
5887 5889 5891 5891 5891 5890 5890 5889 5889 5888 5888 5887 5887 5886 5885 5884 5883 5881 5880 5879 5878 5877 5875 5875 5874 5873 5872 5872 5871 5871 5871 5871 5871 5870 5870 5870 5870 5870 5871 5871 5871 5872 5872 5873 5873 5873 5873 5874 5874
5886 5888 5890 5890 5889 5888 5888 5888 5887 5887 5886 5885 5884 5884 5883 5882 5881 5880 5878 5877 5876 5874 5873 5872 5871 5870 5870 5869 5869 5869 5868 5868 5868 5868 5868 5867 5867 5868 5869 5869 5869 5870 5870 5871 5871 5871 5871 5872 5872
5885 5886 5887 5887 5887 5887 5886 5886 5885 5885 5884 5883 5882 5882 5881 5880 5879 5878 5876 5875 5874 5872 5871 5870 5869 5868 5867 5866 5866 5866 5865 5865 5865 5865 5865 5865 5864 5866 5866 5867 5867 5867 5868 5868 5868 5869 5869 5870 5870
5882 5884 5884 5885 5885 5884 5884 5883 5883 5883 5882 5882 5881 5880 5880 5879 5877 5876 5874 5872 5871 5870 5869 5868 5866 5865 5864 5864 5863 5863 5863 5862 5862 5862 5862 5862 5862 5863 5864 5864 5864 5865 5865 5866 5866 5866 5866 5867 5868
5879 5882 5883 5883 5882 5882 5881 5881 5881 5880 5880 5879 5879 5878 5877 5876 5875 5873 5872 5870 5869 5867 5866 5865 5864 5863 5862 5861 5860 5860 5860 5859 5859 5859 5859 5859 5859 5859 5860 5861 5861 5862 5862 5863 5863 5864 5864 5865 5865
5877 5879 5880 5879 5879 5878 5878 5878 5878 5878 5877 5877 5876 5875 5874 5873 5872 5871 5869 5868 5866 5864 5863 5862 5861 5860 5859 5859 5858 5857 5857 5856 5856 5856 5855 5855 5856 5856 5857 5858 5858 5859 5860 5860 5861 5861 5861 5862 5862
5874 5875 5875 5875 5875 5875 5874 5875 5874 5875 5875 5874 5873 5872 5871 5870 5869 5868 5867 5865 5863 5862 5861 5860 5859 5858 5857 5856 5855 5855 5854 5853 5853 5852 5852 5852 5853 5853 5854 5855 5855 5856 5857 5857 5858 5858 5859 5859 5860
5871 5871 5871 5872 5871 5871 5871 5871 5871 5871 5871 5870 5870 5869 5868 5868 5866 5865 5864 5863 5861 5860 5858 5857 5856 5855 5855 5854 5853 5852 5851 5850 5850 5849 5849 5850 5850 5851 5851 5852 5853 5853 5854 5855 5855 5855 5856 5856 5857
5867 5868 5868 5868 5868 5867 5867 5867 5867 5867 5867 5866 5866 5865 5865 5865 5864 5862 5861 5860 5859 5857 5856 5855 5854 5853 5852 5851 5850 5849 5849 5848 5847 5847 5847 5847 5848 5848 5848 5849 5849 5850 5851 5852 5852 5853 5853 5853 5854
5864 5864 5864 5864 5864 5864 5864 5864 5864 5864 5863 5863 5862 5862 5861 5861 5860 5859 5858 5857 5856 5854 5853 5852 5851 5850 5849 5848 5847 5847 5846 5845 5845 5844 5845 5845 5845 5845 5845 5846 5847 5847 5847 5848 5849 5849 5850 5850 5850
5860 5861 5861 5861 5860 5860 5860 5860 5860 5860 5859 5859 5858 5858 5857 5857 5857 5856 5855 5854 5853 5851 5850 5850 5849 5848 5847 5846 5845 5844 5843 5843 5843 5843 5842 5842 5842 5843 5843 5843 5844 5844 5844 5845 5845 5846 5847 5847 5847
5856 5857 5858 5857 5857 5856 5858 5858 5857 5856 5855 5855 5854 5854 5853 5853 5853 5852 5851 5850 5849 5848 5847 5847 5846 5845 5844 5843 5842 5842 5841 5841 5841 5840 5840 5840 5840 5839 5840 5840 5840 5841 5841 5841 5842 5843 5843 5843 5844
5852 5853 5854 5854 5853 5853 5853 5853 5853 5851 5851 5851 5851 5850 5850 5850 5849 5849 5848 5847 5846 5845 5845 5844 5843 5843 5842 5841 5840 5840 5839 5839 5838 5838 5838 5837 5837 5837 5837 5837 5837 5837 5837 5838 5838 5839 5839 5839 5840
5849 5850 5850 5850 5849 5849 5849 5849 5848 5847 5847 5847 5846 5846 5846 5846 5846 5845 5845 5844 5843 5842 5842 5841 5840 5839 5839 5838 5837 5837 5837 5836 5836 5835 5835 5834 5834 5834 5834 5834 5834 5834 5834 5834 5835 5835 5835 5835 5836
5845 5846 5846 5846 5845 5845 5844 5844 5844 5844 5843 5842 5842 5842 5842 5842 5842 5841 5841 5841 5840 5839 5838 5838 5837 5836 5836 5835 5834 5834 5834 5833 5833 5833 5832 5832 5831 5831 5831 5831 5831 5831 5831 5831 5831 5831 5832 5832 5832
5840 5841 5842 5842 5841 5841 5840 5840 5840 5839 5838 5838 5839 5839 5838 5838 5838 5838 5838 5837 5837 5836 5835 5835 5834 5833 5832 5832 5832 5831 5830 5830 5830 5829 5829 5829 5828 5828 5827 5827 5827 5827 5827 5828 5828 5828 5828 5828 5828
5836 5837 5838 5838 5837 5837 5837 5836 5836 5835 5834 5834 5835 5835 5834 5834 5834 5834 5834 5834 5833 5833 5832 5832 5831 5830 5829 5829 5828 5827 5827 5827 5826 5826 5826 5826 5825 5824 5824 5824 5824 5824 5824 5824 5824 5824 5824 5824 5824
5832 5833 5833 5833 5833 5833 5834 5833 5832 5831 5831 5831 5831 5831 5831 5830 5831 5830 5830 5830 5830 5829 5829 5828 5828 5827 5827 5826 5825 5825 5824 5824 5823 5823 5822 5822 5822 5821 5821 5820 5820 5820 5820 5820 5820 5820 5820 5820 5820
5828 5829 5829 5829 5829 5829 5829 5829 5829 5827 5827 5827 5827 5827 5827 5827 5827 5827 5827 5827 5827 5826 5825 5825 5825 5824 5824 5823 5823 5822 5822 5821 5820 5820 5819 5819 5819 5818 5818 5817 5817 5817 5817 5817 5817 5816 5816 5816 5815
5824 5825 5824 5824 5825 5825 5825 5824 5824 5823 5823 5823 5823 5823 5823 5823 5823 5823 5824 5824 5824 5823 5823 5823 5822 5822 5821 5820 5820 5819 5819 5818 5818 5817 5817 5816 5816 5815 5815 5814 5814 5814 5814 5813 5813 5813 5812 5812 5811
5819 5820 5821 5822 5822 5822 5821 5820 5820 5819 5819 5819 5819 5819 5819 5819 5820 5820 5820 5821 5821 5821 5821 5820 5820 5819 5819 5818 5817 5817 5816 5816 5815 5815 5814 5814 5813 5813 5812 5811 5811 5810 5810 5810 5809 5809 5808 5808 5807
5815 5816 5818 5819 5819 5819 5816 5815 5817 5815 5814 5814 5814 5815 5815 5816 5816 5817 5817 5817 5817 5817 5818 5817 5817 5817 5816 5815 5815 5814 5814 5813 5813 5813 5812 5811 5811 5810 5810 5809 5808 5807 5807 5806 5806 5805 5804 5803 5802
5811 5811 5813 5814 5814 5814 5813 5812 5811 5811 5811 5811 5811 5811 5812 5812 5813 5814 5814 5814 5814 5814 5814 5814 5814 5814 5813 5813 5812 5812 5811 5811 5810 5810 5809 5809 5808 5807 5807 5806 5805 5805 5804 5803 5803 5802 5801 5800 5798
5807 5807 5808 5809 5809 5810 5810 5809 5809 5807 5807 5808 5808 5808 5809 5809 5810 5810 5810 5811 5811 5811 5811 5811 5811 5811 5810 5810 5809 5809 5808 5808 5808 5807 5806 5806 5805 5804 5804 5803 5802 5802 5801 5800 5799 5798 5797 5796 5795
5802 5803 5803 5804 5805 5806 5806 5808 5805 5804 5804 5804 5805 5805 5805 5806 5806 5807 5807 5807 5807 5807 5807 5807 5808 5808 5807 5807 5806 5806 5805 5805 5804 5804 5804 5803 5802 5802 5801 5800 5799 5799 5798 5797 5796 5795 5794 5793 5792
5798 5799 5799 5800 5800 5800 5801 5804 5801 5800 5800 5801 5801 5802 5802 5802 5803 5803 5803 5804 5804 5804 5804 5804 5804 5804 5804 5803 5803 5803 5802 5802 5802 5801 5801 5800 5800 5799 5798 5797 5797 5795 5794 5793 5792 5791 5790 5789 5788